Location: Peterborough
(44.3091°N, 78.3197°W)
Time: 06:12:58
(UTC-04:00)

Vanguard 1 Rocket - All Passes

Search period start: 22 March 2023 00:00
Search period end: 01 April 2023 00:00
Orbit: 652 x 4223 km, 34.3° (Epoch: 21 March)

Date Brightness Start Highest point End Pass type
(mag) Time Alt. Az. Time Alt. Az. Time Alt. Az.
22 Mar - 01:04:42 10° SW 01:23:10 46° SSE 01:33:14 10° E visible
22 Mar - 03:36:17 10° WSW 03:49:52 48° S 03:57:02 10° ESE visible
22 Mar - 06:07:38 10° W 06:14:14 22° SW 06:18:44 10° SSE visible
22 Mar - 21:26:09 10° S 21:41:32 21° SE 21:53:27 10° ESE visible
22 Mar - 23:50:19 10° SW 00:10:16 41° SSE 00:22:05 10° E visible
23 Mar - 02:21:12 10° WSW 02:37:59 52° S 02:46:42 10° ESE visible
23 Mar - 04:53:09 10° W 05:03:32 35° SSW 05:09:31 10° SE visible
23 Mar - 20:19:16 10° SSE 20:28:15 13° SE 20:36:17 10° ESE visible
23 Mar - 22:36:53 10° SSW 22:56:59 35° SSE 23:10:16 10° E visible
24 Mar - 01:06:00 10° WSW 01:25:32 51° S 01:36:02 10° E visible
24 Mar - 03:38:16 10° W 03:52:16 47° SSW 03:59:41 10° ESE visible
24 Mar - 06:10:25 10° W 06:16:22 18° SW 06:20:38 10° S visible
24 Mar - 21:24:59 10° S 21:43:29 27° SE 21:57:23 10° E visible
24 Mar - 23:51:10 10° SW 00:12:31 47° SSE 00:24:56 10° E visible
25 Mar - 02:22:57 10° WSW 02:40:23 54° S 02:49:25 10° ESE visible
25 Mar - 04:55:25 10° W 05:05:46 32° SSW 05:11:53 10° SSE visible
25 Mar - 20:15:31 10° S 20:30:03 19° SE 20:42:26 10° E visible
25 Mar - 22:37:14 10° SW 22:59:04 41° SSE 23:13:16 10° E visible
26 Mar - 01:07:28 10° WSW 01:27:52 55° S 01:38:46 10° ESE visible
26 Mar - 03:40:17 10° W 03:54:36 45° SSW 04:02:14 10° SE visible
26 Mar - 06:13:34 10° WSW 06:18:23 15° SW 06:22:05 10° SSW visible
26 Mar - 19:15:06 10° SE 19:16:52 10° SE 19:18:36 10° SE daylight
26 Mar - 21:24:37 10° SSW 21:45:22 33° SSE 22:00:44 10° E visible
26 Mar - 23:52:18 10° SW 00:14:43 53° SSE 00:27:42 10° E visible
27 Mar - 02:24:46 10° W 02:42:44 54° S 02:52:03 10° ESE visible
27 Mar - 04:57:47 10° W 05:07:53 28° SW 05:14:04 10° SSE visible
27 Mar - 20:13:53 10° S 20:31:44 24° SE 20:46:45 10° E visible
27 Mar - 22:37:57 10° SW 23:01:05 47° SSE 23:16:06 10° E visible
28 Mar - 01:09:04 10° WSW 01:30:09 58° S 01:41:27 10° ESE visible
28 Mar - 03:42:21 10° W 03:56:49 42° SSW 04:04:41 10° SE visible
28 Mar - 06:17:36 10° WSW 06:20:15 11° SW 06:22:33 10° SW visible
28 Mar - 19:06:31 10° SSE 19:18:25 15° SE 19:29:35 10° ESE daylight
28 Mar - 21:24:50 10° SSW 21:47:11 39° SSE 22:03:46 10° E visible
28 Mar - 23:53:39 10° WSW 00:16:54 57° S 00:30:23 10° E visible
29 Mar - 02:26:38 10° W 02:45:00 53° SSW 02:54:38 10° ESE visible
29 Mar - 05:00:17 10° W 05:09:52 24° SW 05:16:00 10° S visible
29 Mar - 20:13:17 10° SSW 20:33:21 30° SE 20:50:17 10° E visible
29 Mar - 22:38:59 10° SW 23:03:05 52° SSE 23:18:49 10° E visible
30 Mar - 01:10:46 10° WSW 01:32:24 59° S 01:44:04 10° ESE visible
30 Mar - 03:44:27 10° W 03:58:55 38° SSW 04:06:59 10° SSE visible
30 Mar - 19:04:03 10° S 19:19:53 21° SE 19:34:44 10° E daylight
30 Mar - 21:25:28 10° SW 21:48:58 45° SSE 22:06:34 10° E visible
30 Mar - 23:55:10 10° WSW 00:19:02 60° S 00:33:01 10° E visible
31 Mar - 02:28:32 10° W 02:47:11 50° SSW 02:57:06 10° SE visible
31 Mar - 05:03:01 10° W 05:11:43 20° SW 05:17:38 10° S visible
31 Mar - 18:01:00 10° SE 18:06:57 11° SE 18:12:53 10° ESE daylight
31 Mar - 20:13:22 10° SSW 20:34:55 36° SE 20:53:22 10° E visible
31 Mar - 22:40:16 10° SW 23:05:04 57° SSE 23:21:26 10° E visible
